Weather History for KONM - March, 2014

Change the Weather History Date:

Tuesday, March 11, 2014

  Actual Average Record
Temperature  
Mean Temperature 56 °F -  
Max Temperature 73 °F 65 °F 79 °F (2011)
Min Temperature 39 °F 32 °F 32 °F (2012)
Degree Days  
Heating Degree Days 9    
Growing Degree Days 6 (Base 50)    
Moisture  
Dew Point 7 °F    
Average Humidity 16    
Maximum Humidity 33    
Minimum Humidity 6    
Precipitation  
Precipitation 0.00 in - - ()
Sea Level Pressure  
Sea Level Pressure 29.93 in    
Wind  
Wind Speed 9 mph (NNW)    
Max Wind Speed 22 mph    
Max Gust Speed 36 mph    
Visibility 10 miles    
Events      
Averages and records for this station are not official NWS values.
T = Trace of Precipitation, MM = Missing Value Source: NWS Daily Summary

Daily Weather History Graph

Daily Weather History Graph

Search for Another Location

Airport or City:

Trip Planner

Search our weather history database for the weather conditions in past years. The results will help you decide how hot, cold, wet, or windy it might be!

Date:

Astronomy

Mar. 11, 2014 Rise Set
Actual Time 7:23 AM MDT 7:12 PM MDT
Civil Twilight 6:58 AM MDT 7:37 PM MDT
Nautical Twilight 6:29 AM MDT 8:06 PM MDT
Astronomical Twilight 6:00 AM MDT 8:35 PM MDT
Moon 3:00 PM MDT (3/11) 4:09 AM MDT (3/11)
Length of Visible Light 12h 38m
Length of Day
11h 48m
Waxing Gibbous, 78% of the Moon is Illuminated
Mar 11
Waxing Gibbous
Mar 16
Full
Mar 23
Last Quarter
Mar 30
New
Apr 7
First Quarter

Hourly Weather History & Observations

Time (MDT) Temp. Windchill Dew Point Humidity Pressure Visibility Wind Dir Wind Speed Gust Speed Precip Events Conditions
12:15 AM 44.1 °F 41.5 °F 13.1 °F 29% 29.92 in 10.0 mi South 4.6 mph - N/A   Clear
12:35 AM 41.0 °F 39.0 °F 12.0 °F 31% 29.92 in 10.0 mi WSW 3.5 mph - N/A   Clear
12:55 AM 40.5 °F - 11.5 °F 31% 29.92 in 10.0 mi Calm Calm - N/A   Clear
1:15 AM 40.3 °F - 10.8 °F 30% 29.92 in 10.0 mi Calm Calm - N/A   Clear
1:35 AM 41.0 °F - 11.8 °F 30% 29.92 in 10.0 mi Calm Calm - N/A   Clear
1:55 AM 43.2 °F 38.4 °F 14.4 °F 31% 29.92 in 10.0 mi SW 8.1 mph - N/A   Clear
2:15 AM 46.6 °F - 14.7 °F 28% 29.92 in 10.0 mi SW 6.9 mph - N/A   Clear
2:35 AM 46.8 °F - 14.2 °F 27% 29.91 in 10.0 mi SW 6.9 mph - N/A   Clear
2:50 AM 44.8 °F 41.0 °F 13.6 °F 28% 29.91 in 10.0 mi SW 6.9 mph - N/A   Clear
3:15 AM 42.4 °F - 11.8 °F 29% 29.90 in 10.0 mi Calm Calm - N/A   Clear
3:35 AM 41.5 °F 39.6 °F 11.7 °F 30% 29.90 in 10.0 mi SSW 3.5 mph - N/A   Clear
3:55 AM 39.4 °F 35.2 °F 11.3 °F 32% 29.90 in 10.0 mi South 5.8 mph - N/A   Clear
4:15 AM 39.7 °F 36.5 °F 12.7 °F 33% 29.90 in 10.0 mi ENE 4.6 mph - N/A   Clear
4:35 AM 43.5 °F 39.4 °F 13.8 °F 30% 29.90 in 10.0 mi North 6.9 mph - N/A   Clear
4:55 AM 46.4 °F 40.7 °F 12.9 °F 26% 29.90 in 10.0 mi North 12.7 mph - N/A   Clear
5:15 AM 48.0 °F - 11.3 °F 23% 29.91 in 10.0 mi North 13.8 mph 19.6 mph N/A   Clear
5:35 AM 50.5 °F - 8.2 °F 18% 29.91 in 10.0 mi North 15.0 mph - N/A   Clear
5:55 AM 50.0 °F - 8.4 °F 19% 29.91 in 10.0 mi NNE 13.8 mph - N/A   Clear
6:15 AM 48.2 °F - 9.0 °F 20% 29.92 in 10.0 mi NNE 11.5 mph - N/A   Clear
6:35 AM 47.3 °F - 8.6 °F 21% 29.92 in 10.0 mi NNE 8.1 mph - N/A   Clear
6:55 AM 47.5 °F - 8.8 °F 21% 29.91 in 10.0 mi NE 11.5 mph 17.3 mph N/A   Clear
7:15 AM 47.1 °F - 9.3 °F 22% 29.92 in 10.0 mi NNE 9.2 mph 16.1 mph N/A   Clear
7:40 AM 48.0 °F - 10.0 °F 22% 29.92 in 10.0 mi NNE 9.2 mph 16.1 mph N/A   Clear
7:55 AM 48.9 °F - 10.4 °F 21% 29.92 in 10.0 mi NNE 8.1 mph - N/A   Clear
8:15 AM 50.2 °F - 10.8 °F 21% 29.92 in 10.0 mi NNE 8.1 mph - N/A   Clear
8:35 AM 52.0 °F - 11.1 °F 20% 29.93 in 10.0 mi NNW 4.6 mph - N/A   Clear
8:55 AM 54.5 °F - 11.5 °F 18% 29.94 in 10.0 mi NNE 9.2 mph - N/A   Clear
9:15 AM 55.8 °F - 12.4 °F 18% 29.94 in 10.0 mi NE 5.8 mph - N/A   Clear
9:35 AM 58.8 °F - 12.2 °F 16% 29.94 in 10.0 mi NE 13.8 mph 24.2 mph N/A   Clear
9:55 AM 59.4 °F - 12.2 °F 16% 29.94 in 10.0 mi ENE 10.4 mph 17.3 mph N/A   Clear
10:15 AM 59.7 °F - 12.4 °F 16% 29.95 in 10.0 mi Calm Calm - N/A   Clear
10:35 AM 61.0 °F - 12.9 °F 15% 29.95 in 10.0 mi NNW 3.5 mph - N/A   Clear
10:55 AM 63.1 °F - 13.6 °F 15% 29.94 in 10.0 mi ENE 3.5 mph - N/A   Clear
11:15 AM 66.0 °F - 12.0 °F 12% 29.93 in 10.0 mi West 11.5 mph 19.6 mph N/A   Clear
11:35 AM 67.3 °F - 11.1 °F 11% 29.93 in 10.0 mi West 10.4 mph 20.7 mph N/A   Clear
11:55 AM 68.2 °F - 11.5 °F 11% 29.93 in 10.0 mi WNW 9.2 mph 20.7 mph N/A   Clear
12:15 PM 69.1 °F - 10.8 °F 10% 29.92 in 10.0 mi NW 12.7 mph 23.0 mph N/A   Clear
12:35 PM 69.6 °F - 8.8 °F 9% 29.91 in 10.0 mi WNW 15.0 mph 25.3 mph N/A   Clear
12:55 PM 70.3 °F - 8.1 °F 9% 29.90 in 10.0 mi NW 16.1 mph 26.5 mph N/A   Clear
1:15 PM 71.1 °F - 6.4 °F 8% 29.89 in 10.0 mi WNW 20.7 mph 26.5 mph N/A   Clear
1:35 PM 71.8 °F - 7.2 °F 8% 29.89 in 10.0 mi NW 15.0 mph 23.0 mph N/A   Clear
1:55 PM 72.7 °F - 7.2 °F 8% 29.87 in 10.0 mi NNW 16.1 mph 24.2 mph N/A   Clear
2:15 PM 73.0 °F - 6.4 °F 8% 29.87 in 10.0 mi WNW 12.7 mph 21.9 mph N/A   Clear
2:35 PM 72.7 °F - 5.5 °F 7% 29.87 in 10.0 mi NNW 18.4 mph 28.8 mph N/A   Clear
2:55 PM 73.4 °F - 4.5 °F 7% 29.87 in 10.0 mi NW 18.4 mph 26.5 mph N/A   Clear
3:15 PM 72.3 °F - 3.0 °F 7% 29.86 in 10.0 mi NNW 21.9 mph 29.9 mph N/A   Clear
3:35 PM 72.9 °F - 3.2 °F 7% 29.87 in 10.0 mi WNW 16.1 mph 27.6 mph N/A   Clear
3:55 PM 72.3 °F - 0.5 °F 6% 29.87 in 10.0 mi WNW 19.6 mph 35.7 mph N/A   Clear
4:15 PM 71.1 °F - -0.9 °F 6% 29.87 in 10.0 mi WNW 18.4 mph 29.9 mph N/A   Clear
4:35 PM 70.9 °F - -0.8 °F 6% 29.88 in 10.0 mi WNW 18.4 mph 29.9 mph N/A   Clear
4:55 PM 70.5 °F - -1.3 °F 6% 29.89 in 10.0 mi WNW 18.4 mph 26.5 mph N/A   Clear
5:15 PM 70.0 °F - -2.4 °F 6% 29.88 in 10.0 mi NW 21.9 mph 28.8 mph N/A   Clear
5:35 PM 68.9 °F - -2.2 °F 6% 29.89 in 10.0 mi NW 18.4 mph 27.6 mph N/A   Clear
5:55 PM 68.4 °F - -2.0 °F 6% 29.90 in 10.0 mi NW 17.3 mph 24.2 mph N/A   Clear
6:15 PM 67.1 °F - -1.1 °F 7% 29.91 in 10.0 mi NNW 17.3 mph 31.1 mph N/A   Clear
6:35 PM 66.0 °F - -0.8 °F 7% 29.92 in 10.0 mi NNW 15.0 mph 27.6 mph N/A   Clear
6:55 PM 64.2 °F - -0.2 °F 8% 29.93 in 10.0 mi NW 18.4 mph 28.8 mph N/A   Clear
7:15 PM 61.9 °F - 1.0 °F 9% 29.95 in 10.0 mi NW 12.7 mph 17.3 mph N/A   Clear
7:35 PM 60.4 °F - 0.9 °F 9% 29.96 in 10.0 mi North 9.2 mph 18.4 mph N/A   Clear
7:55 PM 57.7 °F - 8.8 °F 14% 29.98 in 10.0 mi North 13.8 mph 19.6 mph N/A   Clear
8:15 PM 56.3 °F - 7.7 °F 14% 29.98 in 10.0 mi North 16.1 mph 21.9 mph N/A   Clear
8:35 PM 55.0 °F - 6.8 °F 14% 30.00 in 10.0 mi NNW 17.3 mph 24.2 mph N/A   Clear
8:55 PM 54.3 °F - 6.1 °F 14% 30.00 in 10.0 mi NNW 13.8 mph - N/A   Clear
9:15 PM 53.6 °F - 5.2 °F 14% 30.02 in 10.0 mi NNW 13.8 mph 19.6 mph N/A   Clear
9:35 PM 52.7 °F - 4.1 °F 14% 30.03 in 10.0 mi NNW 10.4 mph 17.3 mph N/A   Clear
9:55 PM 52.3 °F - 3.6 °F 14% 30.04 in 10.0 mi NNW 15.0 mph 20.7 mph N/A   Clear
10:15 PM 51.8 °F - 2.8 °F 14% 30.06 in 10.0 mi NNW 13.8 mph 23.0 mph N/A   Clear
10:35 PM 50.9 °F - 2.8 °F 14% 30.08 in 10.0 mi North 12.7 mph - N/A   Clear
10:55 PM 49.8 °F - 3.0 °F 15% 30.08 in 10.0 mi North 10.4 mph - N/A   Clear
11:15 PM 48.0 °F - 2.7 °F 16% 30.10 in 10.0 mi North 8.1 mph - N/A   Clear
11:35 PM 47.5 °F - 3.0 °F 16% 30.12 in 10.0 mi North 8.1 mph - N/A   Clear
11:55 PM 47.5 °F - 3.2 °F 16% 30.12 in 10.0 mi NNW 11.5 mph - N/A   Clear